Glasgow Prestwick Airport

Airport
ICAO code: 
EGPK
IATA Code: 
PIK
Summary
ICAO Region: 
EUR
Territory: 
Location: 
Prestwick, South Ayrshire, Scotland
Serving: 
Glasgow
Elevation: 
65 ft
Coordinates: 
Aerial View: 
55° 30' 20.613" N, 4° 35' 11.627" W
Metar
Observation
EGPK 190650Z 30024KT 9999 FEW037 08/04 Q1020
Station
Prestwick Airport
Date/Time
2022-01-19 06:50:00
Wind direction
300°
Wind speed
24 kts
Lowest cloud amount
few clouds
Temperature
8°C
Dew point
4°C
Humidity
75%
QNH
1020 hPa
Weather condition
n/a

Description

International airport serving south west Scotland and the Glasgow urban area, situated 50 km from Glasgow city centre.

Climatology

Temperate Marine climate/Oceanic climate (Köppen climate classification Cfb). Moderately cool summer and comparatively warm winter with a temperature range of only 14°C. Prevailing south-westerly winds from the Atlantic Ocean.

Runways

Designator Length Width Surface Rops
3/21 1829 45 ASP Yes/Yes
13/31 2987 46 PEM Yes/Yes
Airport map: 
Aerial View: 

Accidents and Serious Incidents at or in the vicinity of EGPK

SKYbrary Partners:

Safety knowledge contributed by: